This is the latest recevied weather packets stored in our database for station/object PY2UTU-WX. If no packets are shown the sender has not sent any weather packets the latest 1 day(s).
| Time | Temp. | Humidity | Pressure | Rain* | Wind** | Luminosity | Snow |
|---|---|---|---|---|---|---|---|
| 1777972345 | 21.67° C | 98% | 926.8 hPa | - | 0 m/s | - | - |
| 1777971445 | 21.11° C | 98% | 926.7 hPa | - | 0 m/s | - | - |
| 1777970545 | 21.11° C | 98% | 926.6 hPa | - | 0 m/s | - | - |
| 1777969645 | 21.11° C | 98% | 926.3 hPa | - | 0 m/s | - | - |
| 1777968745 | 21.11° C | 98% | 926.2 hPa | - | 0 m/s | - | - |
| 1777967845 | 21.11° C | 98% | 926.1 hPa | - | 0 m/s | - | - |
| 1777966945 | 21.11° C | 98% | 926.2 hPa | - | 0 m/s | - | - |
| 1777966045 | 21.11° C | 98% | 926.2 hPa | - | 0 m/s | - | - |
| 1777965145 | 20.56° C | 98% | 926.4 hPa | - | 0 m/s | - | - |
| 1777964245 | 21.11° C | 98% | 926.5 hPa | - | 0 m/s | - | - |
| 1777963345 | 21.67° C | 98% | 926.6 hPa | - | 0 m/s | - | - |
| 1777962445 | 20.56° C | 98% | 926.6 hPa | - | 0 m/s | - | - |
| 1777961545 | 21.67° C | 98% | 926.7 hPa | - | 0 m/s | - | - |
| 1777960645 | 21.67° C | 98% | 926.6 hPa | - | 0 m/s | - | - |
| 1777959745 | 21.11° C | 98% | 926.7 hPa | - | 0 m/s | - | - |
| 1777958845 | 21.67° C | 98% | 926.7 hPa | - | 0 m/s | - | - |
| 1777957945 | 21.11° C | 98% | 926.8 hPa | - | 0 m/s | - | - |
| 1777957045 | 21.67° C | 98% | 926.9 hPa | - | 0 m/s | - | - |
| 1777956145 | 21.11° C | 98% | 927 hPa | - | 0 m/s | - | - |
| 1777955245 | 21.11° C | 98% | 927.1 hPa | - | 0 m/s | - | - |
| 1777954344 | 21.11° C | 98% | 927.1 hPa | - | 0 m/s | - | - |
| 1777953445 | 21.67° C | 98% | 927.3 hPa | - | 0 m/s | - | - |
| 1777952545 | 21.67° C | 98% | 927.3 hPa | - | 0 m/s | - | - |
* Rain since midnight (hover to see other rain measurements)
** Current wind speed in m/s (hover to see current wind gust speed)